Weather History for Hatteras, NC

Change the Weather History Date:

Friday, June 28, 2013

  Actual Average Record
Temperature  
Mean Temperature 78 °F 78 °F  
Max Temperature 84 °F 83 °F 95 °F (1978)
Min Temperature 72 °F 72 °F 60 °F (1985)
Degree Days  
Heating Degree Days 0 0  
Month to date heating degree days 0 0  
Since 1 June heating degree days 0 0  
Since 1 July heating degree days 2420 2584  
Cooling Degree Days 13 13  
Month to date cooling degree days 371 283  
Year to date cooling degree days 533 426  
Since 1 June cooling degree days 371 283  
Growing Degree Days 28 (Base 50)    
Moisture  
Dew Point 75 °F    
Average Humidity 86    
Maximum Humidity 93    
Minimum Humidity 79    
Precipitation  
Precipitation 1.47 in 0.15 in 1.57 in (2002)
Month to date precipitation 5.52 3.72  
Year to date precipitation 24.71 24.96  
Snow  
Snow 0.00 in - - ()
Month to date snowfall 0.0  
Since 1 July snowfall 0.0  
Snow Depth 0.00 in    
Sea Level Pressure  
Sea Level Pressure 29.72 in    
Wind  
Wind Speed 16 mph (SW)    
Max Wind Speed 25 mph    
Max Gust Speed 37 mph    
Visibility 4 miles    
Events Fog , Rain    
T = Trace of Precipitation, MM = Missing Value Source: NWS Daily Summary

Daily Weather History Graph

Daily Weather History Graph

Search for Another Location

Airport:

Trip Planner

Search our weather history database for the weather conditions in past years. The results will help you decide how hot, cold, wet, or windy it might be!

Date:

Astronomy

Jun. 28, 2013 Rise Set
Actual Time 5:50 AM EDT 8:21 PM EDT
Civil Twilight 5:20 AM EDT 8:50 PM EDT
Nautical Twilight 4:43 AM EDT 9:27 PM EDT
Astronomical Twilight 4:03 AM EDT 10:08 PM EDT
Moon No Moon Rise 11:41 AM EDT
Length of Visible Light 15h 30m
Length of Day
14h 30m
Waning Gibbous, 66% of the Moon is Illuminated
Jun 28
Waning Gibbous
Jun 30
Last Quarter
Jul 8
New
Jul 15
First Quarter
Jul 22
Full

Hourly Weather History & Observations

Time (EDT) Temp. Heat Index Dew Point Humidity Pressure Visibility Wind Dir Wind Speed Gust Speed Precip Events Conditions
12:14 AM 78.8 °F - 75.2 °F 89% 29.82 in 7.0 mi SW 16.1 mph 25.3 mph N/A   Scattered Clouds
12:47 AM 78.8 °F - 75.2 °F 89% 29.82 in 1.8 mi WSW 23.0 mph 32.2 mph 0.02 in Rain Heavy Rain
12:51 AM 79.0 °F - 75.9 °F 90% 29.81 in 1.0 mi SW 19.6 mph 32.2 mph 0.14 in Rain Heavy Rain
1:00 AM 78.8 °F - 75.2 °F 89% 29.81 in 2.0 mi SW 24.2 mph 36.8 mph 0.08 in Rain Rain
1:08 AM 78.8 °F - 75.2 °F 89% 29.81 in 4.0 mi SW 15.0 mph 36.8 mph 0.09 in Rain Light Rain
1:51 AM 78.1 °F - 75.9 °F 93% 29.79 in 5.0 mi SSW 13.8 mph 23.0 mph 0.10 in   Partly Cloudy
2:13 AM 78.8 °F - 75.2 °F 89% 29.78 in 6.0 mi SSW 16.1 mph 24.2 mph N/A   Mostly Cloudy
2:51 AM 75.9 °F - 73.9 °F 94% 29.77 in 5.0 mi SW 18.4 mph 32.2 mph 0.02 in Rain Light Rain
3:51 AM 75.9 °F - 72.0 °F 87% 29.75 in 8.0 mi SW 17.3 mph 24.2 mph 0.00 in   Scattered Clouds
4:04 AM 77.0 °F - 73.4 °F 89% 29.75 in 8.0 mi SW 23.0 mph 36.8 mph N/A   Mostly Cloudy
4:40 AM 77.0 °F - 73.4 °F 89% 29.73 in 2.0 mi SW 19.6 mph 28.8 mph 0.07 in Rain Rain
4:51 AM 78.1 °F - 75.0 °F 90% 29.72 in 3.0 mi SSW 20.7 mph 31.1 mph 0.09 in Rain Light Rain
5:35 AM 78.8 °F - 75.2 °F 89% 29.71 in 6.0 mi SW 19.6 mph 33.4 mph 0.01 in Rain Light Rain
5:51 AM 78.1 °F - 75.0 °F 90% 29.71 in 6.0 mi WSW 19.6 mph 31.1 mph 0.01 in Rain Light Rain
6:35 AM 78.8 °F - 75.2 °F 89% 29.73 in 4.0 mi SW 17.3 mph 25.3 mph 0.00 in   Overcast
6:51 AM 78.1 °F - 75.0 °F 90% 29.73 in 5.0 mi SW 17.3 mph 26.5 mph 0.00 in   Overcast
7:23 AM 78.8 °F - 75.2 °F 89% 29.72 in 4.0 mi WSW 15.0 mph 21.9 mph N/A   Overcast
7:51 AM 78.1 °F - 75.0 °F 90% 29.74 in 4.0 mi WSW 16.1 mph 21.9 mph N/A   Overcast
8:17 AM 78.8 °F - 75.2 °F 89% 29.72 in 5.0 mi WSW 15.0 mph 20.7 mph N/A   Mostly Cloudy
8:36 AM 78.8 °F - 75.2 °F 89% 29.73 in 5.0 mi WSW 13.8 mph 26.5 mph N/A   Mostly Cloudy
8:51 AM 79.0 °F - 75.9 °F 90% 29.72 in 4.0 mi WSW 15.0 mph 24.2 mph N/A   Overcast
9:00 AM 78.8 °F - 73.4 °F 83% 29.72 in 5.0 mi SW 18.4 mph 27.6 mph N/A   Overcast
9:17 AM 77.0 °F - 73.4 °F 89% 29.73 in 1.8 mi SW 23.0 mph 31.1 mph 0.04 in Rain Rain
9:28 AM 75.2 °F - 73.4 °F 94% 29.73 in 2.0 mi SW 24.2 mph 33.4 mph 0.05 in Rain Light Rain
9:33 AM 75.2 °F - 73.4 °F 94% 29.74 in 3.0 mi SW 18.4 mph 34.5 mph 0.05 in   Overcast
9:43 AM 75.2 °F - 73.4 °F 94% 29.73 in 2.0 mi SW 21.9 mph 32.2 mph 0.06 in Rain Light Rain
9:51 AM 75.0 °F - 72.0 °F 90% 29.73 in 4.0 mi SW 16.1 mph 31.1 mph 0.06 in   Overcast
10:14 AM 78.8 °F - 73.4 °F 83% 29.73 in 4.0 mi SW 16.1 mph 29.9 mph N/A   Mostly Cloudy
10:22 AM 78.8 °F - 75.2 °F 89% 29.72 in 4.0 mi SW 15.0 mph 24.2 mph N/A   Mostly Cloudy
10:34 AM 78.8 °F - 75.2 °F 89% 29.72 in 2.5 mi WSW 16.1 mph 21.9 mph 0.00 in Rain Light Rain
10:51 AM 79.0 °F - 75.9 °F 90% 29.72 in 3.0 mi WSW 18.4 mph 28.8 mph 0.01 in   Mostly Cloudy
10:56 AM 78.8 °F - 75.2 °F 89% 29.72 in 3.0 mi WSW 18.4 mph 28.8 mph 0.00 in Rain Light Rain
11:03 AM 78.8 °F - 75.2 °F 89% 29.73 in 2.5 mi WSW 18.4 mph 25.3 mph 0.00 in Rain Light Rain
11:07 AM 78.8 °F - 75.2 °F 89% 29.73 in 1.5 mi WSW 20.7 mph 31.1 mph 0.00 in Rain Light Rain
11:13 AM 75.2 °F - 73.4 °F 94% 29.72 in 0.8 mi SW 13.8 mph 32.2 mph 0.06 in Rain Heavy Rain
11:20 AM 77.0 °F - 75.2 °F 94% 29.73 in 0.5 mi SW 15.0 mph 26.5 mph 0.17 in Fog , Rain Heavy Rain
11:34 AM 78.8 °F - 75.2 °F 89% 29.72 in 1.8 mi SSW 12.7 mph 21.9 mph 0.49 in Rain Light Rain
11:36 AM 78.8 °F - 75.2 °F 89% 29.71 in 3.0 mi SW 12.7 mph 21.9 mph 0.49 in   Overcast
11:44 AM 78.8 °F - 75.2 °F 89% 29.71 in 1.8 mi SW 17.3 mph 25.3 mph 0.49 in Rain Light Rain
11:49 AM 78.8 °F - 75.2 °F 89% 29.71 in 0.8 mi SW 21.9 mph 29.9 mph 0.50 in Rain Rain
11:51 AM 78.1 °F - 75.9 °F 93% 29.72 in 0.5 mi SW 17.3 mph 29.9 mph 0.52 in Fog , Rain Heavy Rain
12:00 PM 78.8 °F - 75.2 °F 89% 29.72 in 0.5 mi WSW 11.5 mph 23.0 mph 0.24 in Fog , Rain Heavy Rain
12:09 PM 77.0 °F - 75.2 °F 94% 29.73 in 1.0 mi WSW 16.1 mph 23.0 mph 0.37 in Rain Light Rain
12:14 PM 77.0 °F - 75.2 °F 94% 29.73 in 1.8 mi WSW 13.8 mph 23.0 mph 0.37 in Rain Light Rain
12:18 PM 75.2 °F - 75.2 °F 100% 29.72 in 1.2 mi West 18.4 mph 28.8 mph 0.37 in Rain Light Rain
12:23 PM 75.2 °F - 75.2 °F 100% 29.73 in 0.8 mi West 16.1 mph 28.8 mph 0.48 in Rain Heavy Rain
12:33 PM 71.6 °F - 69.8 °F 94% 29.73 in 0.5 mi WSW 19.6 mph 35.7 mph 0.68 in Fog , Rain Heavy Rain
12:41 PM 71.6 °F - 69.8 °F 94% 29.73 in 2.0 mi WSW 11.5 mph 25.3 mph 0.74 in Rain Light Rain
12:48 PM 71.6 °F - 71.6 °F 100% 29.73 in 5.0 mi WSW 10.4 mph 18.4 mph 0.74 in Rain Light Rain
12:51 PM 73.0 °F - 71.1 °F 93% 29.73 in 5.0 mi West 9.2 mph - 0.74 in Rain Light Rain
1:13 PM 77.0 °F - 75.2 °F 94% 29.71 in 2.5 mi WSW 9.2 mph - 0.00 in   Overcast
1:30 PM 78.8 °F - 75.2 °F 89% 29.71 in 3.0 mi WSW 15.0 mph 23.0 mph 0.00 in   Overcast
1:51 PM 81.0 °F 87.9 °F 77.0 °F 88% 29.70 in 4.0 mi WSW 12.7 mph 21.9 mph 0.00 in   Mostly Cloudy
2:46 PM 84.2 °F 94.1 °F 77.0 °F 79% 29.70 in 5.0 mi SW 15.0 mph 23.0 mph N/A   Haze
2:51 PM 84.0 °F 93.7 °F 77.0 °F 79% 29.70 in 5.0 mi SW 17.3 mph 24.2 mph N/A   Haze
3:24 PM 84.2 °F 94.1 °F 77.0 °F 79% 29.68 in 5.0 mi SW 13.8 mph 24.2 mph N/A   Haze
3:51 PM 82.9 °F 91.8 °F 77.0 °F 82% 29.68 in 5.0 mi SW 16.1 mph 25.3 mph N/A   Haze
4:51 PM 82.0 °F 89.4 °F 75.9 °F 82% 29.68 in 6.0 mi SW 16.1 mph 27.6 mph N/A   Haze
5:51 PM 82.0 °F 88.6 °F 75.0 °F 79% 29.67 in 6.0 mi SW 17.3 mph 28.8 mph N/A   Haze
6:51 PM 80.1 °F 85.1 °F 75.0 °F 85% 29.67 in 5.0 mi SW 17.3 mph 25.3 mph N/A   Haze
7:51 PM 79.0 °F - 75.0 °F 88% 29.68 in 4.0 mi SW 15.0 mph 24.2 mph N/A   Clear
8:19 PM 78.8 °F - 75.2 °F 89% 29.67 in 4.0 mi SW 16.1 mph 24.2 mph N/A   Mostly Cloudy
8:51 PM 79.0 °F - 75.9 °F 90% 29.67 in 6.0 mi SW 17.3 mph 27.6 mph N/A   Overcast
9:14 PM 78.8 °F - 75.2 °F 89% 29.68 in 6.0 mi SW 16.1 mph 27.6 mph N/A   Overcast
9:51 PM 79.0 °F - 75.9 °F 90% 29.70 in 5.0 mi WSW 16.1 mph 26.5 mph N/A   Overcast
10:02 PM 78.8 °F - 75.2 °F 89% 29.71 in 5.0 mi WSW 15.0 mph 23.0 mph N/A   Overcast
10:25 PM 78.8 °F - 75.2 °F 89% 29.71 in 5.0 mi WSW 16.1 mph 21.9 mph N/A   Scattered Clouds
10:49 PM 78.8 °F - 75.2 °F 89% 29.71 in 5.0 mi WSW 13.8 mph 20.7 mph N/A   Mostly Cloudy
10:51 PM 79.0 °F - 75.9 °F 90% 29.71 in 5.0 mi WSW 13.8 mph 20.7 mph N/A   Mostly Cloudy
11:51 PM 79.0 °F - 75.9 °F 90% 29.68 in 5.0 mi WSW 13.8 mph 19.6 mph N/A   Overcast